This is the latest recevied weather packets stored in our database for station/object CE7LGA-10. If no packets are shown the sender has not sent any weather packets the latest 10 day(s).
| Time | Temp. | Humidity | Pressure | Rain* | Wind** | Luminosity | Snow |
|---|---|---|---|---|---|---|---|
| 1777430229 | 23.89° C | 64% | 1003.9 hPa | - | - | - | - |
| 1777429329 | 23.33° C | 63% | 1003.7 hPa | - | - | - | - |
| 1777428429 | 22.78° C | 62% | 1003.5 hPa | - | - | - | - |
| 1777427529 | 22.78° C | 64% | 1003 hPa | - | - | - | - |
| 1777426629 | 22.78° C | 65% | 1002.8 hPa | - | - | - | - |
| 1777425729 | 22.22° C | 64% | 1002.5 hPa | - | - | - | - |
| 1777424829 | 21.67° C | 66% | 1002.4 hPa | - | - | - | - |
| 1777423928 | 21.11° C | 66% | 1002.1 hPa | - | - | - | - |
| 1777423030 | 21.11° C | 67% | 1001.6 hPa | - | - | - | - |
| 1777422130 | 20° C | 67% | 1001.1 hPa | - | - | - | - |
| 1777421230 | 20° C | 68% | 1000.8 hPa | - | - | - | - |
| 1777420330 | 19.44° C | 70% | 1000.4 hPa | - | - | - | - |
| 1777419430 | 19.44° C | 71% | 1000.1 hPa | - | - | - | - |
| 1777418530 | 18.89° C | 72% | 999.7 hPa | - | - | - | - |
| 1777417630 | 18.33° C | 73% | 999.2 hPa | - | - | - | - |
| 1777416730 | 17.22° C | 74% | 998.6 hPa | - | - | - | - |
| 1777415830 | 16.11° C | 75% | 998.3 hPa | - | - | - | - |
| 1777414929 | 15.56° C | 75% | 998.2 hPa | - | - | - | - |
| 1777414029 | 15° C | 77% | 997.8 hPa | - | - | - | - |
| 1777413129 | 13.89° C | 77% | 997.4 hPa | - | - | - | - |
| 1777412229 | 13.89° C | 77% | 997.1 hPa | - | - | - | - |
| 1777411329 | 13.89° C | 77% | 996.9 hPa | - | - | - | - |
| 1777410429 | 13.89° C | 77% | 996.1 hPa | - | - | - | - |
| 1777409529 | 14.44° C | 77% | 995.7 hPa | - | - | - | - |
| 1777408629 | 14.44° C | 77% | 995.3 hPa | - | - | - | - |
* Rain since midnight (hover to see other rain measurements)
** Current wind speed in m/s (hover to see current wind gust speed)